Weather History for Norwood, MA

Change the Weather History Date:

Saturday, January 12, 2013

  Actual Average Record
Temperature  
Mean Temperature 41 °F -  
Max Temperature 45 °F 32 °F 55 °F (2006)
Min Temperature 37 °F 16 °F 5 °F (2009)
Degree Days  
Heating Degree Days 24    
Moisture  
Dew Point 39 °F    
Average Humidity 95    
Maximum Humidity 100    
Minimum Humidity 87    
Precipitation  
Precipitation 0.01 in - - ()
Sea Level Pressure  
Sea Level Pressure 30.16 in    
Wind  
Wind Speed 1 mph (WNW)    
Max Wind Speed 5 mph    
Max Gust Speed -    
Visibility 3 miles    
Events Fog    
Averages and records for this station are not official NWS values.
T = Trace of Precipitation, MM = Missing Value Source: NWS Daily Summary

Daily Weather History Graph

Daily Weather History Graph

Search for Another Location

Airport:

Trip Planner

Search our weather history database for the weather conditions in past years. The results will help you decide how hot, cold, wet, or windy it might be!

Date:

Astronomy

Jan. 12, 2013 Rise Set
Actual Time 7:11 AM EST 4:34 PM EST
Civil Twilight 6:40 AM EST 5:05 PM EST
Nautical Twilight 6:06 AM EST 5:40 PM EST
Astronomical Twilight 5:32 AM EST 6:14 PM EST
Moon 7:26 AM EST (1/12) 6:02 PM EST (1/12)
Length of Visible Light 10h 25m
Length of Day
9h 22m
New Moon, 1% of the Moon is Illuminated
Jan 12
New Moon
Jan 18
First Quarter
Jan 26
Full
Feb 3
Last Quarter
Feb 10
New

Hourly Weather History & Observations

Time (EST) Temp. Windchill Dew Point Humidity Pressure Visibility Wind Dir Wind Speed Gust Speed Precip Events Conditions
12:11 AM 37.4 °F 34.9 °F 35.6 °F 93% 30.23 in 2.5 mi SSE 3.5 mph - 0.01 in   Overcast
12:40 AM 37.4 °F - 35.6 °F 93% 30.21 in 3.0 mi Calm Calm - 0.01 in   Overcast
12:53 AM 37.0 °F - 36.0 °F 96% 30.21 in 5.0 mi Calm Calm - 0.01 in   Overcast
1:53 AM 37.9 °F - 37.0 °F 97% 30.19 in 10.0 mi Calm Calm - N/A   Overcast
2:53 AM 39.0 °F - 37.0 °F 93% 30.19 in 10.0 mi Calm Calm - N/A   Overcast
3:53 AM 39.0 °F - 37.0 °F 93% 30.16 in 10.0 mi Calm Calm - N/A   Overcast
4:53 AM 39.0 °F - 37.9 °F 96% 30.16 in 9.0 mi Calm Calm - N/A   Overcast
5:27 AM 37.4 °F - 37.4 °F 100% 30.17 in 1.8 mi Calm Calm - N/A   Overcast
5:53 AM 37.9 °F - 37.0 °F 97% 30.16 in 1.0 mi Calm Calm - N/A   Overcast
6:02 AM 37.4 °F - 35.6 °F 93% 30.16 in 0.8 mi Calm Calm - N/A   Overcast
6:11 AM 37.4 °F - 37.4 °F 100% 30.16 in 1.0 mi Calm Calm - N/A   Overcast
6:38 AM 37.4 °F - 37.4 °F 100% 30.16 in 0.8 mi Calm Calm - N/A   Overcast
6:53 AM 37.9 °F - 37.0 °F 97% 30.16 in 1.0 mi Calm Calm - N/A   Overcast
7:15 AM 37.4 °F 34.9 °F 35.6 °F 93% 30.16 in 0.8 mi NNW 3.5 mph - N/A   Overcast
7:26 AM 39.2 °F 37.0 °F 37.4 °F 93% 30.18 in 1.0 mi NW 3.5 mph - N/A   Overcast
7:34 AM 37.4 °F 33.8 °F 37.4 °F 100% 30.19 in 0.8 mi NW 4.6 mph - N/A   Overcast
7:53 AM 39.0 °F - 37.9 °F 96% 30.19 in 1.0 mi Calm Calm - N/A   Overcast
8:53 AM 41.0 °F - 39.9 °F 96% 30.19 in 1.8 mi Calm Calm - N/A   Overcast
9:11 AM 41.0 °F - 39.2 °F 93% 30.19 in 2.0 mi Calm Calm - N/A   Overcast
9:25 AM 41.0 °F - 39.2 °F 93% 30.19 in 3.0 mi Calm Calm - N/A   Overcast
9:53 AM 42.1 °F - 39.0 °F 89% 30.19 in 4.0 mi Calm Calm - N/A   Overcast
9:57 AM 42.8 °F - 39.2 °F 87% 30.19 in 2.5 mi Calm Calm - N/A   Overcast
10:53 AM 43.0 °F 41.3 °F 39.9 °F 89% 30.19 in 2.5 mi WNW 3.5 mph - N/A   Overcast
11:00 AM 42.8 °F - 39.2 °F 87% 30.17 in 6.0 mi Calm Calm - N/A   Overcast
11:53 AM 43.0 °F - 39.9 °F 89% 30.15 in 7.0 mi Calm Calm - N/A   Overcast
12:53 PM 44.1 °F - 41.0 °F 89% 30.13 in 6.0 mi Calm Calm - N/A   Overcast
1:53 PM 45.0 °F 43.5 °F 42.1 °F 90% 30.16 in 8.0 mi NW 3.5 mph - N/A   Overcast
2:53 PM 45.0 °F - 43.0 °F 93% 30.16 in 3.0 mi Calm Calm - N/A   Overcast
3:53 PM 45.0 °F - 43.0 °F 93% 30.16 in 2.0 mi Calm Calm - N/A   Overcast
4:40 PM 44.6 °F 43.1 °F 42.8 °F 93% 30.15 in 0.8 mi WSW 3.5 mph - N/A   Overcast
4:53 PM 44.1 °F - 42.1 °F 93% 30.15 in 0.8 mi Calm Calm - N/A   Overcast
5:25 PM 42.8 °F 41.1 °F 42.8 °F 100% 30.15 in 1.2 mi WNW 3.5 mph - N/A   Overcast
5:49 PM 42.8 °F 41.1 °F 42.8 °F 100% 30.16 in 2.5 mi WNW 3.5 mph - N/A   Overcast
5:53 PM 43.0 °F 41.3 °F 42.1 °F 97% 30.17 in 2.0 mi West 3.5 mph - N/A   Overcast
6:03 PM 42.8 °F - 42.8 °F 100% 30.16 in 1.8 mi Calm Calm - N/A   Overcast
6:13 PM 42.8 °F - 42.8 °F 100% 30.16 in 2.5 mi Calm Calm - N/A   Overcast
6:20 PM 42.8 °F - 42.8 °F 100% 30.16 in 4.0 mi Calm Calm - N/A   Overcast
6:27 PM 42.8 °F - 42.8 °F 100% 30.16 in 2.0 mi Calm Calm - N/A   Overcast
6:53 PM 43.0 °F - 42.1 °F 97% 30.14 in 2.0 mi Calm Calm - N/A   Overcast
7:08 PM 42.8 °F - 41.0 °F 93% 30.14 in 1.0 mi Calm Calm - N/A   Overcast
7:53 PM 42.1 °F - 41.0 °F 96% 30.14 in 0.5 mi Calm Calm - N/A Fog Fog
8:53 PM 41.0 °F - 39.9 °F 96% 30.16 in 0.2 mi Calm Calm - N/A Fog Fog
9:10 PM 41.0 °F - 39.2 °F 93% 30.16 in 0.5 mi Calm Calm - N/A Fog Fog
9:42 PM 41.0 °F - 39.2 °F 93% 30.14 in 0.2 mi Calm Calm - N/A Fog Fog
9:53 PM 41.0 °F - 39.9 °F 96% 30.14 in 0.5 mi Calm Calm - N/A Fog Fog
10:53 PM 41.0 °F - 39.9 °F 96% 30.13 in 0.2 mi Calm Calm - N/A Fog Fog
11:04 PM 41.0 °F - 39.2 °F 93% 30.13 in 0.2 mi Calm Calm - N/A Fog Fog
11:29 PM 41.0 °F - 39.2 °F 93% 30.13 in 0.2 mi Calm Calm - N/A Fog Fog
11:53 PM 41.0 °F - 39.9 °F 96% 30.14 in 0.5 mi Calm Calm - N/A Fog Fog